Weather in Ozero-Karachi

Russia / Novosibirsk Oblast     55°20′09″N   76°56′28″E
temp.,
°C
wind,
m/s
gust,
m/s
humid.,
%
clouds,
%
prec.,
mm/h
press.,
hPa
HPBL,
m
2 march, tue
tue201:00−17nne239688 0.1 101321
04:00−17n129785 0.1 101420
07:00−20nnw1110078 0.1 101520
10:00−18nw129788 0.0 101631
13:00−15w119190 0.1 1016227
16:00−13wsw2288100 0.0 1016378
19:00−16sw1296100 0.1 101620
22:00−18ssw239898 0.0 101620
3 march, wed
wed301:00−19sw239894 0.0 101620
04:00−19ssw239881 0.0 101620
07:00−18ssw339883 0.1 101742
10:00−17s469789 0.1 1017185
13:00−14s589588 0.1 1017295
16:00−12s61092100 0.0 1016432
19:00−14s71492100 0.0 1016443
22:00−13ssw71392100 0.1 1015503
4 march, thu
thu401:00−10ssw71394100 0.6 1014544
04:00−9ssw81393100 0.6 1012511
07:00−7ssw81493100 0.8 1012525
10:00−5ssw81493100 0.4 1010613
13:00−2ssw91493100 0.8 1010877
16:00−1ssw91393100 0.3 1009818
19:00−2ssw81593100 0.7 1008808
22:00−3ssw81594100 0.5 1007766
5 march, fri
fri501:00−2ssw81594100 0.9 1006801
04:00−2ssw81496100 0.6 1005756
07:00−3ssw61295100 0.9 1005507
10:00−4w61188100 0.4 1007507
13:00−7w6129067 0.4 1011450
16:00−7sw711880 0.0 1013532
19:00−8ssw8168635 0.0 1014592
22:00−6sw101793100 1.0 1013962
6 march, sat
sat601:00−5sw101789100 1.8 1012913
04:00−5sw101793100 0.3 1011873
07:00−4sw91694100 1.4 1012777
10:00−4sw91590100 0.2 1012742
13:00−3sw81291100 0.3 1013699
16:00−3sw81291100 0.1 1014740
19:00−4sw71191100 0.3 1015739
22:00−5sw51093100 0.1 1016510